Location: Home
(51.5204°N, 2.5456°W)
Time: 05:34:54
(UTC+00:00)

STRAND 1 - Pass Details

Date: 11 December 2019
Orbit: 768 x 781 km, 98.5° (Epoch: 20 January)

Event Time Altitude Azimuth Distance (km) Brightness Sun altitude
Rises 05:06:31 0° 119° (ESE) 3,251 ? -26.5°
Reaches altitude 10° 05:09:19 10° 104° (ESE) 2,325 ? -26.0°
Maximum altitude 05:13:05 21° 56° (ENE) 1,681 ? -25.5°
Drops below altitude 10° 05:16:51 10° 9° (N) 2,329 ? -24.9°
Enters shadow 05:19:13 - 356° (N) 3,104 ? -24.5°
